Change the Weather History Date:

Saturday, October 12, 2013

  Actual Average Record
Temperature  
Mean Temperature 42 °F -  
Max Temperature 55 °F - - ()
Min Temperature 28 °F - - ()
Degree Days  
Heating Degree Days 24    
Moisture  
Dew Point 36 °F    
Average Humidity 90    
Maximum Humidity 100    
Minimum Humidity 63    
Precipitation  
Precipitation 0.00 in - - ()
Sea Level Pressure  
Sea Level Pressure 30.45 in    
Wind  
Wind Speed 1 mph ()    
Max Wind Speed 7 mph    
Max Gust Speed -    
Visibility 5.4 miles    
Events      
T = Trace of Precipitation, MM = Missing Value Source: Averaged Metar Reports

Daily Weather History Graph

Daily Weather History Graph

Search for Another Location

Airport or City:

Trip Planner

Search our weather history database for the weather conditions in past years. The results will help you decide how hot, cold, wet, or windy it might be!

Date:

Astronomy

Oct. 12, 2013 Rise Set
Actual Time 7:33 AM CEST 6:06 PM CEST
Civil Twilight 6:53 AM CEST 6:46 PM CEST
Nautical Twilight 6:07 AM CEST 7:32 PM CEST
Astronomical Twilight 5:20 AM CEST 8:19 PM CEST
Moon 3:21 PM CEST (10/12) No Moon Set
Length of Visible Light 11h 53m
Length of Day
10h 33m
First Quarter, 55% of the Moon is Illuminated
Oct 12
First Quarter
Oct 19
Full
Oct 27
Last Quarter
Nov 3
New
Nov 10
First Quarter

Hourly Weather History & Observations

Time (CEST) Temp. Windchill Dew Point Humidity Pressure Visibility Wind Dir Wind Speed Gust Speed Precip Events Conditions
12:20 AM 32.0 °F - 32.0 °F 100% 30.48 in 6.2 mi Calm Calm - N/A   Unknown
12:50 AM 32.0 °F - 32.0 °F 100% 30.48 in - Calm Calm - N/A   Mist
1:20 AM 30.2 °F - 30.2 °F 100% 30.48 in 4.3 mi Calm Calm - N/A   Mist
1:50 AM 30.2 °F - 30.2 °F 100% 30.48 in 6.2 mi Calm Calm - N/A   Unknown
2:20 AM 30.2 °F - 30.2 °F 100% 30.48 in 6.2 mi Calm Calm - N/A   Unknown
2:50 AM 30.2 °F - 30.2 °F 100% 30.48 in 1.4 mi Calm Calm - N/A   Mist
3:20 AM 30.2 °F - 30.2 °F 100% 30.48 in 6.2 mi South 1.2 mph - N/A   Unknown
3:50 AM 30.2 °F - 30.2 °F 100% 30.48 in 6.2 mi Calm Calm - N/A   Unknown
4:20 AM 30.2 °F - 30.2 °F 100% 30.48 in 3.7 mi Calm Calm - N/A   Mist
4:50 AM 30.2 °F - 30.2 °F 100% 30.48 in 6.2 mi Calm Calm - N/A   Unknown
5:20 AM 30.2 °F - 30.2 °F 100% 30.48 in 6.2 mi Calm Calm - N/A   Partly Cloudy
5:50 AM 28.4 °F - 28.4 °F 100% 30.48 in 6.2 mi Calm Calm - N/A   Unknown
6:20 AM 28.4 °F - 28.4 °F 100% 30.48 in 6.2 mi Calm Calm - N/A   Unknown
6:50 AM 28.4 °F - 28.4 °F 100% 30.48 in 0.5 mi Calm Calm - N/A   Unknown
7:20 AM 28.4 °F - 28.4 °F 100% 30.51 in - South 2.3 mph - N/A   Unknown
7:50 AM 28.4 °F - 28.4 °F 100% 30.51 in 6.2 mi South 2.3 mph - N/A   Unknown
8:20 AM 28.4 °F - 28.4 °F 100% 30.51 in 6.2 mi Calm Calm - N/A   Unknown
8:50 AM 33.8 °F - 33.8 °F 100% 30.51 in 6.2 mi Calm Calm - N/A   Unknown
9:20 AM 35.6 °F - 35.6 °F 100% 30.51 in 6.2 mi Calm Calm - N/A   Unknown
9:50 AM 41.0 °F - 39.2 °F 93% 30.51 in 6.2 mi Calm Calm - N/A   Unknown
10:20 AM 44.6 °F - 39.2 °F 81% 30.51 in 6.2 mi Calm Calm - N/A   Unknown
10:50 AM 46.4 °F - 42.8 °F 87% 30.51 in 6.2 mi Calm Calm - N/A   Unknown
11:20 AM 48.2 °F - 42.8 °F 82% 30.51 in 6.2 mi Variable 1.2 mph - N/A   Unknown
11:50 AM 50.0 °F - 42.8 °F 76% 30.51 in 6.2 mi Variable 2.3 mph - N/A   Unknown
12:20 PM 51.8 °F - 42.8 °F 71% 30.48 in 6.2 mi NNE 3.5 mph - N/A   Unknown
12:50 PM 51.8 °F - 42.8 °F 71% 30.48 in 6.2 mi North 3.5 mph - N/A   Unknown
1:20 PM 55.4 °F - 42.8 °F 63% 30.48 in 2.5 mi ENE 6.9 mph - N/A   Haze
1:50 PM 53.6 °F - 42.8 °F 67% 30.48 in 6.2 mi East 6.9 mph - N/A   Unknown
2:20 PM 55.4 °F - 42.8 °F 63% 30.45 in 6.2 mi East 6.9 mph - N/A   Unknown
2:50 PM 55.4 °F - 42.8 °F 63% 30.45 in 6.2 mi East 6.9 mph - N/A   Unknown
3:20 PM 55.4 °F - 42.8 °F 63% 30.45 in 6.2 mi East 6.9 mph - N/A   Unknown
3:50 PM 55.4 °F - 44.6 °F 67% 30.45 in 6.2 mi ENE 5.8 mph - N/A   Unknown
4:20 PM 53.6 °F - 44.6 °F 72% 30.42 in 6.2 mi ENE 5.8 mph - N/A   Unknown
4:50 PM 53.6 °F - 42.8 °F 67% 30.42 in 6.2 mi ENE 6.9 mph - N/A   Unknown
5:20 PM 51.8 °F - 42.8 °F 71% 30.42 in 6.2 mi ENE 3.5 mph - N/A   Unknown
5:50 PM 50.0 °F - 42.8 °F 76% 30.42 in 6.2 mi ENE 2.3 mph - N/A   Unknown
6:20 PM 44.6 °F - 42.8 °F 93% 30.42 in 6.2 mi Calm Calm - N/A   Unknown
6:50 PM 41.0 °F - 41.0 °F 100% 30.42 in 6.2 mi Calm Calm - N/A   Unknown
7:20 PM 41.0 °F - 41.0 °F 100% 30.42 in 6.2 mi Calm Calm - N/A   Unknown
7:50 PM 37.4 °F - 37.4 °F 100% 30.39 in 3.1 mi Calm Calm - N/A   Mist
8:20 PM 35.6 °F - 35.6 °F 100% 30.39 in 0.7 mi Calm Calm - N/A   Mist
8:50 PM 35.6 °F 32.8 °F 35.6 °F 100% 30.39 in 6.2 mi SSW 3.5 mph - N/A   Unknown
9:20 PM 35.6 °F - 35.6 °F 100% 30.39 in 1.6 mi Calm Calm - N/A   Unknown
9:50 PM 35.6 °F - 35.6 °F 100% 30.36 in 1.7 mi NNE 1.2 mph - N/A   Mist
10:20 PM 33.8 °F - 33.8 °F 100% 30.36 in 6.2 mi Calm Calm - N/A   Unknown
10:50 PM 33.8 °F - 33.8 °F 100% 30.36 in 6.2 mi Calm Calm - N/A   Unknown
11:20 PM 32.0 °F - 32.0 °F 100% 30.36 in - Calm Calm - N/A   Mist
11:50 PM 32.0 °F - 32.0 °F 100% 30.36 in 6.2 mi Calm Calm - N/A   Unknown